Location: Columbus
(29.5618°N, 96.6770°W)
Time: 16:04:54
(UTC-05:00)

Daily predictions for brighter satellites

Satellite Brightness Start Highest point End
(mag) Time Altitude Azimuth Time Altitude Azimuth Time Altitude Azimuth
METEOR-M 4.3 20:47:38 10° S 20:52:59 81° WSW 20:58:21 10° NNW
Cosmos 1892 Rocket 3.6 20:48:38 10° S 20:53:04 85° E 20:57:33 10° N
Cosmos 1331 Rocket 4.2 20:48:42 10° N 20:53:47 55° ENE 20:58:49 10° SSE
Cosmos 1743 2.7 20:51:21 10° N 20:55:08 63° E 20:58:55 10° SSE
Atlas Centaur 2 2.8 20:48:48 10° WSW 20:55:23 84° SSE 21:03:29 10° E
Meteor 2-17 Rocket 4.5 20:49:25 10° N 20:55:35 73° E 21:01:42 10° SSE
Resurs 01 Rocket 3.4 20:55:42 10° SSW 20:59:42 33° W 21:03:43 10° NW
ATLAS 3B R/B 3.6 20:54:48 10° SSE 21:01:17 31° ESE 21:07:45 10° NE
Aureole 2 Rocket 3.2 20:57:37 10° SSW 21:01:36 64° WNW 21:05:15 10° N
Cosmos 1603 3.7 20:56:24 10° S 21:01:56 64° ESE 21:07:28 10° NNE
Cosmos 1461 4.3 20:58:43 10° N 21:02:06 23° NE 21:05:02 12° ESE
ISS -1.7 20:59:10 10° WSW 21:02:14 38° NW 21:05:19 10° NNE
BREEZE-M DEB (TANK) 4.0 20:52:25 10° SW 21:02:20 64° NW 21:05:23 10° NE
ALOS 2.3 21:01:10 10° SSE 21:05:46 62° ENE 21:10:23 10° N
Abrixas rocket 3.2 21:03:09 10° NNW 21:06:22 37° NE 21:09:03 13° ESE
FENGYUN 3A 3.7 21:03:13 10° SSE 21:08:31 64° ENE 21:13:50 10° N
Meteor 1-23 Rocket 4.3 21:04:34 10° S 21:10:11 84° W 21:15:55 10° N
Cosmos 1939 Rocket 4.4 21:14:42 15° ESE 21:16:50 21° ENE 21:19:59 10° NNE
Cosmos 1726 Rocket 3.9 21:15:29 10° NNW 21:19:53 69° W 21:24:14 10° S
Milstar 3 Cent rocket 3.1 21:11:05 10° W 21:20:21 54° SSW 21:24:28 17° SE
ERS-1 Rocket 3.3 21:17:09 14° SE 21:21:17 46° ENE 21:26:04 10° N
Meteor 2-4 Rocket 4.3 21:15:57 10° SSW 21:21:43 64° W 21:27:37 10° N
USA 186 1.6 21:19:36 10° S 21:22:27 69° WSW 21:25:09 10° NNW
Cosmos 1943 3.7 21:18:17 10° SSE 21:23:23 36° ESE 21:28:31 10° NE
SPOT 5 4.3 21:23:00 15° E 21:24:37 18° ENE 21:27:31 10° NNE
Cosmos 2297 4.1 21:19:31 10° NNW 21:25:10 64° WSW 21:30:50 10° S
H-2A R/B 3.0 21:25:18 10° S 21:29:12 70° WSW 21:33:10 10° NNW
CZ-4 DEB 3.5 21:28:46 10° S 21:31:55 52° W 21:35:04 10° NNW
Delta 168 3.0 21:30:30 10° WSW 21:33:35 42° S 21:35:06 27° SE
Envisat 3.9 21:31:25 20° ESE 21:33:54 31° ENE 21:38:20 10° N
COSMOS 2455 2.9 21:28:25 10° SSW 21:34:25 83° WNW 21:40:27 10° NNE
Cosmos 1602 Rocket 3.5 21:30:33 10° S 21:35:01 88° ESE 21:39:30 10° N
Cosmos 407 Rocket 4.5 21:34:31 22° SE 21:36:10 26° E 21:40:27 10° NE
Cosmos 1513 Rocket 4.4 21:33:40 10° N 21:39:55 78° E 21:45:16 14° S
Cosmos 2058 Rocket 3.9 21:37:29 10° NNW 21:41:41 48° W 21:45:52 10° SSW
deb Centaur AC-2 4.4 21:38:26 10° W 21:43:15 84° N 21:47:30 18° E
APEX 4.1 21:38:40 10° NNW 21:43:21 79° WSW 21:47:49 18° SSE
Tsikada Rocket 4.0 21:37:46 10° S 21:44:11 81° E 21:50:35 10° N
ATLAS 5 CENTAUR R/B 2.4 21:47:14 10° SW 21:49:42 23° S 21:49:42 23° S
Cosmos 1812 Rocket 3.7 21:48:02 10° N 21:52:20 53° E 21:53:47 36° SE
OAO 3 Copernicus 4.2 21:47:47 10° WNW 21:52:50 81° SSW 21:55:01 34° ESE
Cosmos 1900 4.4 21:52:54 10° S 21:57:54 56° ESE 22:02:56 10° NE
H-2A R/B 2.1 21:56:28 29° S 21:58:36 79° WSW 22:02:56 10° NNW
CZ-2C R/B 2.8 22:04:32 19° WSW 22:04:41 20° W 22:06:27 10° NW
Fermi 4.3 22:03:11 10° WSW 22:06:57 40° SSW 22:06:57 40° SSW
Cosmos 1666 4.4 22:06:11 10° NNW 22:09:37 30° W 22:12:17 15° SSW
CZ-3C R/B 3.2 22:04:33 10° WSW 22:10:47 23° SSW 22:10:49 23° SSW
Lacrosse 4 Rocket 1.2 22:08:47 24° SSW 22:11:08 87° WNW 22:15:12 10° NNE
Cosmos 2369 Rocket 2.9 22:07:44 10° N 22:12:53 35° ENE 22:13:56 32° E
Mugunghwa Rocket 4.1 22:07:47 10° WSW 22:13:50 49° SSE 22:15:29 40° ESE
Cosmos 1992 Rocket 4.2 22:09:22 10° N 22:14:28 51° ENE 22:15:24 45° ESE
USA 81 4.2 22:11:53 10° N 22:17:02 51° E 22:17:46 47° ESE
UNK 4.3 22:12:29 10° NNE 22:18:05 87° W 22:22:30 18° SSW
SeaSat 1 2.9 22:18:29 41° E 22:19:14 44° ENE 22:23:54 10° N
Meteor 2-12 Rocket 4.3 22:15:09 10° N 22:21:15 85° E 22:23:37 40° S
Cosmos 1634 Rocket 4.0 22:18:43 10° N 22:24:48 59° E 22:26:12 48° SE
Cosmos 1953 Rocket 3.4 22:26:35 72° E 22:26:35 72° E 22:30:54 10° N
YAOGAN 6 3.6 22:29:04 38° NNE 22:29:04 38° NNE 22:31:43 10° N
Cosmos 489 Rocket 4.4 22:24:51 24° SSW 22:28:54 85° ESE 22:35:18 10° NNE
Cosmos 1190 Rocket 4.4 22:27:42 15° SSW 22:32:02 62° WNW 22:37:18 10° N
H-2A R/B 3.7 22:36:00 19° ENE 22:36:00 19° ENE 22:38:53 10° NNE
CZ-4B R/B 3.8 22:33:17 10° N 22:38:24 67° WNW 22:40:38 34° SSW
SPOT 1/Viking Rocket 3.4 22:43:57 74° E 22:44:04 75° ENE 22:49:12 10° N
COSMOS 2406 4.1 22:45:47 35° ENE 22:45:47 35° ENE 22:49:30 10° NE
Cosmos 1932 4.3 22:42:30 39° SSW 22:44:58 85° ESE 22:51:11 10° NNE
Atlas Centaur 2 2.9 22:37:52 10° W 22:45:23 85° N 22:49:13 37° E
Cosmos 2279 Rocket 4.3 22:39:42 10° N 22:45:44 49° E 22:45:51 48° E
Cosmos 676 Rocket 4.1 22:48:02 56° SW 22:49:06 75° WNW 22:54:27 10° NNE
ATLAS 3B R/B 3.9 22:44:24 10° SW 22:51:45 47° WNW 22:59:03 10° NNE
MetOp-A 4.5 22:54:58 52° SW 22:55:43 57° W 23:00:58 10° NNW
Meteor 1-22 Rocket 4.1 22:53:38 10° N 22:59:21 87° W 22:59:36 82° SSW
CZ-4 R/B 4.4 22:54:56 10° N 22:59:51 59° WNW 23:00:29 54° WSW
Cosmos 1758 Rocket 4.3 23:00:48 49° WNW 23:00:48 49° WNW 23:04:35 10° N
SPOT 5 4.2 23:02:15 28° WSW 23:02:27 28° W 23:06:12 10° NW
USA 234 3.8 23:06:31 42° ENE 23:07:46 46° NE 23:13:58 10° NNW
Terra 3.2 23:10:21 30° NNE 23:10:21 30° NNE 23:13:10 10° N
Cosmos 1943 Rocket 3.1 23:04:41 10° N 23:09:02 38° NE 23:09:02 38° NE
USA 238 DEB 4.3 23:30:15 25° SW 23:34:20 55° WNW 23:41:16 10° NNE
USA 238 4.3 23:30:32 27° SW 23:34:26 55° WNW 23:41:22 10° NNE
ARGOS 4.2 23:37:09 39° W 23:37:09 39° W 23:41:37 10° NNW
Cosmos 1092 Rocket 4.4 23:47:06 56° NNE 23:47:06 56° NNE 23:51:59 10° N
